Regional Weather Roundup
Issued by NWS Charleston, SC

Home | Current Version | Previous Version | Text Only | Print | Product List | Glossary On
Versions: 1 2 3 4 5 6 7 8 9 10 11 12 13 14 15 16 17 18 19 20 21 22 23 24 25 26 27 28 29 30 31 32 33 34 35 36 37 38 39 40 41 42 43 44 45 46 47 48 49 50
000
ASUS42 KCHS 280028
RWRCHS

REGIONAL WEATHER ROUNDUP
NATIONAL WEATHER SERVICE CHARLESTON SC
800 PM EDT SAT AUG 27 2016

NOTE: "FAIR" INDICATES FEW OR NO CLOUDS BELOW 12,000 FEET WITH NO
SIGNIFICANT WEATHER AND/OR OBSTRUCTIONS TO VISIBILITY.

NOT ALL STATIONS ARE QUALITY CONTROLLED. USE DATA WITH CAUTION...
ESPECIALLY DEWPOINT OBSERVATIONS.

SCZ027-030-031-034>040-042>050-280100-
...SOUTHEAST SOUTH CAROLINA...

CITY           SKY/WX    TMP DP  RH WIND       PRES   REMARKS
N CHARLESTON   PTCLDY    83  70  64 E8        30.05R
6HR MIN TEMP:  83; 6HR MAX TEMP:  92;

WATERFRONT PRK   N/A     85  76  74 E12       30.02S HX  95
MOUNT PLEASANT FAIR      81  73  78 CALM      30.06R
JOHNS ISLAND   FAIR      81  75  83 E5        30.06R
PINOPOLIS        N/A     84  73  70 VRB2      29.98R HX  91
MONCKS CORNER  FAIR      79  70  73 CALM      30.06R
SUMMERVILLE    FAIR      82  68  61 CALM      30.06R
BEAUFORT MCAS  CLEAR     83  74  74 E7        30.05R
6HR MIN TEMP:  83; 6HR MAX TEMP:  91;

BEAUFORT ARPT  FAIR      81  73  78 E7        30.05R
HILTON HEAD IS PTCLDY    82  75  78 VRB6      30.05R
WALTERBORO     CLEAR     82  70  65 SE3       30.06R
ALLENDALE      FAIR      86  66  51 CALM      30.05R

...SOUTHERN MIDLANDS AND PEE DEE...

CITY           SKY/WX    TMP DP  RH WIND       PRES   REMARKS
GEORGETOWN     FAIR      79  72  78 CALM      30.07R
KINGSTREE      FAIR      81  68  65 E5        30.06S
ORANGEBURG     CLEAR     87  68  52 E3        30.05R HX  90
6HR MIN TEMP:  87; 6HR MAX TEMP:  94;

BARNWELL       NOT AVBL
AIKEN          FAIR      86  66  51 SE5       30.10R
MANNING        FAIR      82  70  65 CALM      30.06R
COLUMBIA       PTCLDY    90  71  53 E7        30.05R HX  96
6HR MIN TEMP:  90; 6HR MAX TEMP:  97;

SUMTER         CLEAR     88  70  56 SE5       30.03R HX  93
6HR MIN TEMP:  88; 6HR MAX TEMP:  96;

FLORENCE       PTCLDY    86  73  65 S7        30.06R HX  93
6HR MIN TEMP:  86; 6HR MAX TEMP:  98;

MYRTLE BEACH   CLEAR     84  68  58 S8        30.07R
N MYRTLE BEACH CLEAR     83  74  74 SE3       30.06R
6HR MIN TEMP:  83; 6HR MAX TEMP:  89;


$$

GAZ063-065-086>088-099>101-113>116-118-119-134>141-150-280100-
...SOUTHEAST GEORGIA...

CITY           SKY/WX    TMP DP  RH WIND       PRES   REMARKS
SAVANNAH ARPT  MOCLDY    81  73  76 E7        30.04R
6HR MIN TEMP:  81; 6HR MAX TEMP:  93; 6HR PCP: TRACE;

HUNTER AAF     MOCLDY    81  78  90 NE8       30.01R
6HR MIN TEMP:  81; 6HR MAX TEMP:  89; 6HR PCP: TRACE;

FORT STEWART   PTCLDY    83  73  71 E5        30.00R
6HR MIN TEMP:  83; 6HR MAX TEMP:  91;

STATESBORO     CLEAR     85  70  60 CALM      30.04R
SYLVANIA       NOT AVBL
CLAXTON        FAIR      84  73  68 E3        30.04R HX  90

...CSRA...CENTRAL AND FAR SOUTHEAST GEORGIA...

CITY           SKY/WX    TMP DP  RH WIND       PRES   REMARKS
THOMSON        CLEAR     88  72  59 MISG      30.10R HX  94
AUGUSTA-BUSH   CLEAR     85  72  65 SE3       30.02R HX  91
6HR MIN TEMP:  85; 6HR MAX TEMP:  98;

AUGUSTA-DANIEL CLEAR     91  68  46 E7        30.05R HX  95
SWAINSBORO     FAIR      88  59  37 SE7       30.04R
VIDALIA        CLEAR     84  72  65 E5        30.04R
EASTMAN        FAIR      89  53  28 SE3       30.04R
HAZLEHURST     FAIR      87  71  58 CALM      30.02R HX  92
ALMA           CLEAR     84  71  65 E7        30.01R
6HR MIN TEMP:  84; 6HR MAX TEMP:  93;

WAYCROSS         N/A     84  76  77 E8        30.02R HX  94
JESUP          FAIR      82  77  83 E6        30.03R HX  91
BAXLEY         FAIR      84  77  79 SE6       30.02R HX  94
BRUNSWICK      PTCLDY    81  77  89 E6        30.02R
SAINT SIMONS   CLOUDY    82  75  79 E10       30.01R
6HR MIN TEMP:  79; 6HR MAX TEMP:  89; 6HR PCP:  0.21;


$$

SCZ027-028-034-036>038-045-046-048>050-GAZ119-141-280100-
...LAKE AND SUPPLEMENTAL COASTAL OBSERVATIONS...

STATION/POSITION TIME  TEMP    WIND        PRES    WAVE   SWELL
                       AIR SEA DIR/SP/G            HT/PER HT/PER/DIR
                 (UTC) (F)     (DEG/KT/KT) (MB)    (FT/S) (FT/S/D)
WINYAH BAY       2300   83     110/  7     1016.0F
LAKE MURRAY      2300   91     130/  7/ 11 1016.3R
ACE BASIN NERRS  2300   85     100/  3     1017.0S
FORT PULASKI     0000   82 86   70/ 10/ 15 1017.3R
SAPELO ISLAND    2300   86      80/  7     1016.0S

$$

ANZ835-935-AMZ111-154-330-350-352-354-370-450-454-472-280100-
...C-MAN AND BUOY OBSERVATIONS...

STATION/POSITION TIME  TEMP    WIND        PRES    WAVE   SWELL
                       AIR SEA DIR/SP/G            HT/PER HT/PER/DIR
                 (UTC) (F)     (DEG/KT/KT) (MB)    (FT/S) (FT/S/D)
BUOY 41004       2350   84 84   70/ 10/ 14 1016.6R   4/10   3/120/10
BUOY 41008       2350   84 85   80/ 14/ 16 1015.9R   4/10   3/100/10
FOLLY BEACH CMAN 0000   82      80/ 12/ 13 1017.9R
CAPERS NEARSHORE 2308   83 85   90/ 10/ 14 1016.8S
FRIPP NEARSHORE  2308   84 86   90/ 14/ 19 1015.9F


STATION/POSITION TIME  TEMP    WIND        PRES    WAVE   SWELL
                       AIR SEA DIR/SP/G            HT/PER HT/PER/DIR
                 (UTC) (F)     (DEG/KT/KT) (MB)    (FT/S) (FT/S/D)
5E ST. MARYS GA  2301      84                N/A     4/11   2/120/11
FRYING PAN BUOY  0000   83 85   90/ 10/ 12 1017.1R
BUOY 41025       2350   83 85   40/  8/ 10 1018.0R   3/ 9   3/100/ 9
CAPE LOOKOUT NC  0000   82      80/ 11/ 12 1017.6R
BUOY 41002       2350   83 84   70/ 12/ 16 1016.2R   4/ 9   3/120/ 9
BUOY 41010       NOT AVBL
ST AUGUSTINE FL  0000   81 85   CALM  /  2 1016.0R


$$




USA.gov is the U.S. government's official web portal to all federal, state and local government web resources and services.